Simultaneous Nadir Overpasses (SNOs) Predictions

Prediction of SNOs between GOES-16 and AQUA Satellite Orbit:

Table of predicted SNOs for the next 14.0 days since TLE Epoch: 4/6/2017
Index Date Time (GOES-16) GOES-16 Lat,Lon AQUA Lat,Lon Distance(km) Time Diff (sec)
1 04/07/2017 07:46:30 0.01, -89.49 0.61, -92.29 318.52 80
2 04/09/2017 07:31:36 0.01, -89.51 -0.04, -89.33 20.58 80
3 04/11/2017 07:19:21 0.01, -89.53 -0.64, -86.35 360.14 80
4 04/11/2017 19:40:44 -0.01, -89.51 -0.47, -91.54 231.27 80
5 04/13/2017 19:31:10 -0.01, -89.54 0.20, -88.58 108.84 80
6 04/14/2017 07:52:25 0.01, -89.57 0.90, -93.74 474.03 80
7 04/15/2017 19:18:55 -0.00, -89.56 0.82, -85.61 449.18 80
8 04/16/2017 07:40:11 0.00, -89.59 0.23, -90.78 133.80 80
9 04/18/2017 07:25:16 0.00, -89.62 -0.39, -87.81 206.72 80
10 04/18/2017 19:46:38 -0.00, -89.60 -0.70, -93.00 384.98 80
11 04/20/2017 19:34:24 -0.00, -89.64 -0.07, -90.03 44.01 80




NCC Satellite Simultaneous Nadir Overpasses (SNOs) Prediction Service
